カタログに戻る

THORAD AGENA D DEB

運用中VLEO
NORAD 4938·DEBRIS·🇺🇸 United States

打ち上げ Sep 30, 1969 から Vandenberg Space Force Base

Loading…

次のパス (今後24時間)

TLE

最新Source: Space-Track

元期: Sep 14, 2026, 18:29 UTC

1 04938U 69082HJ  26257.77059839  .00006709  00000-0  61286-3 0  9997
2 04938  70.1200 171.6576 0013051 282.4538  77.5160 14.95394927987071

AllMySatでTHORAD AGENA D DEBをリアルタイム追跡

Download on the App Store